TimeEST,TemperatureF,Dew PointF,Humidity,Sea Level PressureIn,VisibilityMPH,Wind Direction,Wind SpeedMPH,Gust SpeedMPH,PrecipitationIn,Events,Conditions,WindDirDegrees,DateUTC
12:54 AM,10.0,1.9,70,30.51,9.0,WSW,9.2,-,0.00,Snow,Light Snow,250,2013-01-25 05:54:00
1:35 AM,10.4,1.4,67,30.46,9.0,WSW,8.1,-,0.00,Snow,Light Snow,250,2013-01-25 06:35:00
1:54 AM,10.0,1.9,70,30.49,9.0,WSW,6.9,-,0.00,Snow,Light Snow,250,2013-01-25 06:54:00
2:54 AM,10.0,3.9,76,30.50,9.0,West,5.8,-,0.00,Snow,Light Snow,280,2013-01-25 07:54:00
3:54 AM,10.0,3.9,76,30.49,7.0,West,6.9,-,0.00,Snow,Light Snow,260,2013-01-25 08:54:00
4:54 AM,10.0,3.9,76,30.45,9.0,WSW,5.8,-,0.00,Snow,Light Snow,250,2013-01-25 09:54:00
5:54 AM,10.0,5.0,80,30.27,9.0,SW,6.9,-,0.00,Snow,Light Snow,230,2013-01-25 10:54:00
6:54 AM,9.0,3.9,80,30.43,9.0,SSW,3.5,-,0.00,Snow,Light Snow,210,2013-01-25 11:54:00
7:54 AM,8.1,3.0,80,30.41,9.0,SSW,6.9,-,0.00,Snow,Light Snow,200,2013-01-25 12:54:00
8:54 AM,9.0,3.0,77,30.40,9.0,SW,6.9,-,0.00,,Overcast,220,2013-01-25 13:54:00
9:16 AM,8.6,3.2,79,30.35,10.0,SW,8.1,-,N/A,,Overcast,220,2013-01-25 14:16:00
9:51 AM,10.4,3.2,73,30.33,10.0,SSW,6.9,-,N/A,,Overcast,200,2013-01-25 14:51:00
9:54 AM,10.9,3.9,73,30.37,10.0,SW,6.9,-,N/A,,Overcast,220,2013-01-25 14:54:00
10:54 AM,12.0,5.0,73,30.34,10.0,SSW,4.6,-,N/A,,Overcast,210,2013-01-25 15:54:00
11:54 AM,14.0,3.9,64,30.29,10.0,SSW,6.9,-,N/A,,Overcast,200,2013-01-25 16:54:00
12:54 PM,15.1,5.0,64,30.25,10.0,South,4.6,-,N/A,,Overcast,190,2013-01-25 17:54:00
1:54 PM,16.0,5.0,62,30.21,10.0,Calm,Calm,-,N/A,,Overcast,0,2013-01-25 18:54:00
2:54 PM,16.0,6.1,65,30.19,9.0,SSE,5.8,-,0.00,Snow,Light Snow,150,2013-01-25 19:54:00
3:37 PM,15.8,8.6,73,30.13,1.5,ESE,6.9,-,0.01,Snow,Light Snow,120,2013-01-25 20:37:00
3:54 PM,15.1,10.0,80,30.16,1.2,ESE,4.6,-,0.01,Snow,Light Snow,120,2013-01-25 20:54:00
4:54 PM,15.1,10.0,80,30.14,1.5,ESE,3.5,-,0.01,Snow,Light Snow,120,2013-01-25 21:54:00
5:41 PM,15.8,10.4,79,30.09,2.5,ESE,5.8,-,0.01,Snow,Light Snow,110,2013-01-25 22:41:00
5:45 PM,15.8,10.4,79,30.09,3.0,ESE,6.9,-,0.01,Snow,Light Snow,110,2013-01-25 22:45:00
5:54 PM,15.1,10.0,80,30.13,6.0,ESE,8.1,-,0.01,Snow,Light Snow,120,2013-01-25 22:54:00
6:44 PM,15.8,10.4,79,30.09,2.5,ESE,3.5,-,0.01,Snow,Light Snow,120,2013-01-25 23:44:00
6:54 PM,15.1,10.0,80,30.13,4.0,SE,4.6,-,0.01,Snow,Light Snow,130,2013-01-25 23:54:00
7:54 PM,14.0,10.0,84,30.12,3.0,ESE,3.5,-,0.01,Snow,Light Snow,120,2013-01-26 00:54:00
8:54 PM,14.0,10.0,84,30.12,7.0,ESE,4.6,-,0.00,Snow,Light Snow,120,2013-01-26 01:54:00
9:54 PM,12.9,9.0,84,30.12,8.0,East,4.6,-,0.00,Snow,Light Snow,90,2013-01-26 02:54:00
10:54 PM,10.9,7.0,84,30.12,9.0,ESE,3.5,-,0.00,Snow,Light Snow,110,2013-01-26 03:54:00
11:54 PM,9.0,6.1,88,30.12,10.0,Calm,Calm,-,0.00,,Partly Cloudy,0,2013-01-26 04:54:00